Flag for Morocco Weather past 2 weeks in Casablanca, Morocco

Now
82 °F

Clear.


Feels Like: 87 °F
Forecast: 72 / 83 °F
Wind: 9 mph from Northeast

Location: Casablanca Airport

Current Time: Jul 6, 2015 at 11:30:04 AM

Latest Report: Jul 6, 2015 at 10:00 AM


Visibility: 5 mi

Pressure: 29.95 "Hg

Humidity: 70%

Dew point: 72 °F

Location of CasablancaLocation

Historic Weather in Casablanca — Graph

°F

Casablanca temperature yesterday

Maximum temperature yesterday: 81 °F (at 1:00 PM)
Minimum temperature yesterday: 72 °F (at 6:00 AM)
Average temperature yesterday: 77 °F

Past Weeks' High & Low Weather Summary

 TemperatureHumidityPressure
High82 °F (Jul 6, 10:00 AM)100% (Jun 23, 11:00 AM)30.09 "Hg (Jun 23, 11:00 AM)
Low36 °F (Jun 23, 11:00 AM)50% (Jun 25, 2:00 PM)29.92 "Hg (Jun 27, 5:00 AM)
Average74 °F77%30.01 "Hg
* Reported Jun 21 10:00 AM — Jul 6 10:00 AM, Casablanca, Weather by CustomWeather, © 2015

Note: Actual official high and low records may vary slightly from our data, if they occured in-between our weather recording intervals... More about our weather records

Advertising

Casablanca weather history for previous 24 hours

 ConditionsComfort  
Time TempWeatherWind HumidityBarometerVisibility
10:00 AM
Mon, Jul 6
82 °FClear.9 mph70%29.95 "Hg5 mi
8:00 AM77 °FClear.8 mph83%29.95 "Hg3 mi
7:00 AM75 °FClear.6 mph89%29.95 "Hg4 mi
6:00 AM73 °FClear.No wind89%29.95 "Hg5 mi
5:00 AM73 °FClear.7 mph94%29.95 "Hg5 mi
12:00 AM75 °FPassing clouds.7 mph89%29.98 "HgN/A
11:00 PM
Sun, Jul 5
73 °FPassing clouds.7 mph94%29.98 "HgN/A
10:00 PM75 °FPassing clouds.7 mph83%29.98 "HgN/A
9:00 PM75 °FOvercast.7 mph89%29.95 "HgN/A
8:00 PM75 °FOvercast.9 mph89%29.95 "HgN/A
7:00 PM75 °FOvercast.14 mph83%29.95 "HgN/A
6:00 PM77 °FOvercast.14 mph79%29.95 "HgN/A
5:00 PM77 °FOvercast.13 mph79%29.95 "HgN/A
4:00 PM79 °FPartly sunny.15 mph79%29.95 "HgN/A
3:00 PM81 °FScattered clouds.16 mph74%29.95 "HgN/A
2:00 PM81 °FPassing clouds.15 mph70%29.95 "HgN/A
1:00 PM81 °FSunny.8 mph70%29.95 "Hg10 mi
12:00 PM79 °FPassing clouds.12 mph74%29.98 "HgN/A
11:00 AM79 °FPassing clouds.12 mph74%29.98 "HgN/A
Weather by CustomWeather, © 2015

See weather overviewHow to use our weather pages